Simultaneous Nadir Overpasses (SNOs) Predictions

Prediction of SNOs between GOES-14 and AQUA Satellite Orbit:

Table of predicted SNOs for the next 14.0 days since TLE Epoch: 1/8/2022
Index Date Time (GOES-14) GOES-14 Lat,Lon AQUA Lat,Lon Distance(km) Time Diff (sec)
1 01/09/2022 08:21:39 -0.00,-104.57 -0.58,-101.77 318.70 80
2 01/09/2022 20:43:03 0.01,-104.24 -0.54,-106.95 307.95 80
3 01/11/2022 20:33:31 0.01,-104.25 0.04,-103.98 30.00 80
4 01/13/2022 20:21:20 0.00,-104.26 0.69,-101.03 367.74 80
5 01/14/2022 08:39:57 -0.01,-104.60 0.32,-106.20 181.74 80
6 01/16/2022 08:30:25 -0.00,-104.60 -0.27,-103.23 155.90 80
7 01/16/2022 20:51:48 0.01,-104.27 -0.89,-108.40 470.53 80
8 01/18/2022 08:18:14 0.00,-104.61 -0.93,-100.27 493.48 80
9 01/18/2022 20:39:37 0.00,-104.28 -0.23,-105.45 132.93 80
10 01/20/2022 20:24:45 -0.00,-104.28 0.38,-102.48 204.79 80
11 01/21/2022 08:46:02 -0.00,-104.62 0.64,-107.65 345.15 80
